This is the latest recevied weather packets stored in our database for station/object G4KVI. If no packets are shown the sender has not sent any weather packets the latest 10 day(s).
| Time | Temp. | Humidity | Pressure | Rain* | Wind** | Luminosity | Snow |
|---|---|---|---|---|---|---|---|
| 1777443904 | 7.78° C | 77% | 1025.5 hPa | 0 mm | - | 110 W/m² | - |
| 1777443604 | 7.78° C | 77% | 1025.6 hPa | 0 mm | - | 101 W/m² | - |
| 1777443304 | 7.22° C | 79% | 1025.5 hPa | 0 mm | - | 92 W/m² | - |
| 1777443004 | 7.22° C | 79% | 1025.5 hPa | 0 mm | - | 83 W/m² | - |
| 1777442704 | 7.22° C | 79% | 1025.6 hPa | 0 mm | - | 74 W/m² | - |
| 1777442404 | 7.22° C | 79% | 1025.7 hPa | 0 mm | - | 67 W/m² | - |
| 1777442104 | 6.67° C | 80% | 1025.5 hPa | 0 mm | - | 59 W/m² | - |
| 1777441804 | 6.67° C | 81% | 1025.5 hPa | 0 mm | - | 53 W/m² | - |
| 1777441204 | 6.11° C | 82% | 1025.5 hPa | 0 mm | - | 41 W/m² | - |
| 1777440904 | 6.11° C | 82% | 1025.5 hPa | 0 mm | - | 37 W/m² | - |
| 1777440604 | 5.56° C | 83% | 1025.5 hPa | 0 mm | - | 33 W/m² | - |
| 1777440304 | 5.56° C | 84% | 1025.6 hPa | 0 mm | - | 28 W/m² | - |
| 1777440004 | 5.56° C | 84% | 1025.6 hPa | 0 mm | - | 24 W/m² | - |
| 1777439704 | 5.56° C | 84% | 1025.5 hPa | 0 mm | - | 19 W/m² | - |
| 1777439404 | 5.56° C | 84% | 1025.8 hPa | 0 mm | - | 16 W/m² | - |
| 1777439104 | 5° C | 85% | 1025.6 hPa | 0 mm | - | 12 W/m² | - |
| 1777438804 | 5° C | 85% | 1025.9 hPa | 0 mm | - | 9 W/m² | - |
| 1777438504 | 5° C | 84% | 1025.7 hPa | 0 mm | - | 7 W/m² | - |
| 1777438204 | 5° C | 84% | 1025.8 hPa | 0 mm | - | 4 W/m² | - |
| 1777437904 | 5° C | 84% | 1025.8 hPa | 0 mm | - | 2 W/m² | - |
| 1777437604 | 5° C | 84% | 1025.8 hPa | 0 mm | - | 1 W/m² | - |
| 1777437304 | 5° C | 84% | 1025.8 hPa | 0 mm | - | 1 W/m² | - |
| 1777437004 | 5° C | 84% | 1025.9 hPa | 0 mm | - | 0 W/m² | - |
| 1777436704 | 5° C | 83% | 1025.9 hPa | 0 mm | - | 0 W/m² | - |
| 1777436404 | 5° C | 83% | 1025.8 hPa | 0 mm | - | 0 W/m² | - |
* Rain latest hour (hover to see other rain measurements)
** Current wind speed in m/s (hover to see current wind gust speed)